星链-5817 (STARLINK-5817 )

导读 | 豆包AI

STARLINK-5817是美国SpaceX公司星链(Starlink)星座中的一员,于北京时间2023年3月3日发射入轨,属于星链第二代卫星组网的组成部分。星链计划旨在打造全球卫星互联网,为偏远地区、移动场景及应急场景提供高速低延迟宽带服务。该卫星运行在近地轨道,配备相控阵天线与氪离子推进系统,可自主完成轨道维持和避碰操作,服役完成后会坠入大气层完全烧毁,减少空间碎片影响。

基本信息
目录编号:
55779
目录名称:
STARLINK-5817
国际标识:
2023-028AQ
轨道中心:
EARTH
卫星名称:
星链-5817
卫星全名:
星链-5817 (STARLINK-5817 )
卫星状态:
在轨 (已飞行1154 天)
发射日期:
2023-03-03 UTC
国别 :
美国 (US)
星等 :
--
轨道信息
数据来源 国际轨道数据
星历时间: 2026-04-30T10:41:03+0800
9小时前
查看轨道信息
半长轴: 6950.181km
偏心率: 0.0003306
轨道倾角: 70.000°
近地点辐角 264.927°
升交点赤经 74.601°
平近点角 95.151°
近地点: 569.746km
远地点: 574.342km
周期: 96.107分钟
每日圈数: 14.983339
详细信息
固有亮度:
5
最大亮度:
2.5
卫星平台:
Starlink v1.5
覆盖范围:
全球
运营商:
太空探索技术公司
运营商所在国:
美国
制造商(研发单位):
太空探索技术公司
制造商所在国:
美国
使用方式:
暂无
卫星简介
星链(Starlink)计划是由太空探索技术公司(SpaceX)提出的一个巨型低轨卫星互联网星座项目,计划在2019年至2024年间在太空搭建由约1.2万颗卫星组成的“星链”网络,其中1584颗将部署在地球上空550千米处的近地轨道,并从2020年开始工作。该卫星仍在工作。
2D轨道图
3D轨道图
轨道高度分析图
轨道倾角分析图
轨道综合分析图
查看轨道综合分析图